Simultaneous Nadir Overpasses (SNOs) Predictions

Prediction of SNOs between NOAA-19 and TERRA Satellite Orbit:

Table of predicted SNOs for the next 14.0 days since TLE Epoch: 8/10/2024
Index Date (NOAA-19) Time (NOAA-19) Lat,Lon (NOAA-19) SZA (NOAA-19 ) Date (TERRA) Time (TERRA) Lat,Lon (TERRA) SZA (TERRA ) Distance(km) Time Diff (sec)
1 08/11/2024 08:07:55 76.32, 59.00 61.16 08/11/2024 08:08:39 76.32, 59.01 61.16 0.20 44
2 08/11/2024 08:58:38 -76.89,-131.39 118.24 08/11/2024 08:57:48 -76.89,-131.41 118.25 0.44 50
3 08/13/2024 11:57:39 -76.51,-177.64 117.99 08/13/2024 11:57:26 -76.52,-177.58 117.98 1.85 13
4 08/15/2024 14:56:38 -76.19, 136.48 117.65 08/15/2024 14:57:02 -76.20, 136.48 117.65 0.25 24
5 08/15/2024 15:46:59 77.84, -48.91 64.12 08/15/2024 15:45:46 77.93, -49.51 64.17 16.74 73
6 08/17/2024 17:55:39 -75.77, 90.30 117.39 08/17/2024 17:56:39 -75.77, 90.32 117.39 0.95 60
7 08/17/2024 18:46:25 76.38,-100.24 63.23 08/17/2024 18:45:47 76.39,-100.15 63.24 2.66 38
8 08/19/2024 21:45:24 76.00,-146.29 63.55 08/19/2024 21:45:22 76.02,-146.19 63.56 3.03 2
9 08/22/2024 00:44:21 75.70, 167.99 63.96 08/22/2024 00:44:55 75.70, 167.98 63.95 0.46 34
10 08/22/2024 01:35:07 -76.29, -22.63 115.45 08/22/2024 01:34:04 -76.30, -22.54 115.44 2.56 63
11 08/24/2024 03:43:20 75.28, 121.97 64.28 08/24/2024 03:44:29 75.28, 121.93 64.26 1.47 69



Historial Predications of SNOs between NOAA-19 and TERRA
